Location: ???????
(54.6339°N, 39.4245°E)
Time: 14:07:55
(UTC+00:00)

ISS - Pass Details

Date: 19 May 2025
Orbit: 415 x 418 km, 51.6° (Epoch: 20 June)

Event Time Altitude Azimuth Distance (km) Brightness Sun altitude
Rises 18:35:54 0° 273° (W) 2,363 0.7 -7.7°
Reaches altitude 10° 18:38:04 10° 265° (W) 1,497 -0.5 -7.9°
Maximum altitude 18:41:13 38° 196° (SSW) 654 -3.1 -8.2°
Enters shadow 18:44:11 11° 128° (SE) 1,427 -1.7 -8.4°
